Location: Bonn
(50.7330°N, 7.1000°E)
Time: 13:19:31
(UTC+02:00)

Cosmos 1933 Rocket - Visible Passes

Search period start: 25 May 2015 00:00
Search period end: 04 June 2015 00:00
Orbit: 606 x 632 km, 82.5° (Epoch: 24 May)

Date Brightness Start Highest point End Pass type
(mag) Time Alt. Az. Time Alt. Az. Time Alt. Az.
25 May 4.0 02:36:27 27° SSE 02:38:37 55° E 02:42:53 10° NNE visible
25 May 5.4 04:13:42 10° WSW 04:16:55 19° WNW 04:20:01 10° NNW visible
26 May 6.0 01:17:12 10° ESE 01:18:45 12° E 01:20:31 10° ENE visible
26 May 3.5 02:53:49 29° SSW 02:56:02 85° W 03:00:25 10° N visible
26 May 5.8 04:32:57 10° W 04:34:45 12° WNW 04:36:22 10° NW visible
27 May 5.4 01:34:01 15° ESE 01:35:57 20° E 01:39:12 10° NE visible
27 May 4.0 03:11:10 24° SW 03:13:33 48° WNW 03:17:48 10° N visible
28 May 4.7 01:51:21 23° SE 01:53:13 33° E 01:57:10 10° NNE visible
28 May 4.8 03:28:31 16° WSW 03:31:10 29° WNW 03:34:59 10° N visible
29 May 3.8 02:08:41 31° SSE 02:10:34 58° E 02:14:52 10° NNE visible
29 May 5.5 03:45:51 10° WSW 03:48:54 18° WNW 03:51:54 10° NNW visible
30 May 5.9 00:48:54 10° ESE 00:50:41 13° E 00:52:39 10° NE visible
30 May 3.5 02:26:00 32° SSW 02:27:59 80° W 02:32:22 10° N visible
30 May 5.9 04:05:14 10° WNW 04:06:45 11° WNW 04:08:05 10° NW visible
31 May 5.3 01:06:09 17° ESE 01:07:53 21° E 01:11:13 10° NE visible
31 May 4.1 02:43:18 25° SW 02:45:31 46° WNW 02:49:43 10° N visible
01 Jun 4.5 01:23:27 25° SE 01:25:10 35° E 01:29:09 10° NNE visible
01 Jun 4.9 03:00:36 17° WSW 03:03:08 28° WNW 03:06:53 10° N visible
02 Jun 3.7 01:40:43 33° SSE 01:42:30 62° E 01:46:49 10° NNE visible
02 Jun 5.6 03:17:55 10° WSW 03:20:53 17° WNW 03:23:46 10° NNW visible
03 Jun 5.8 00:20:50 11° ESE 00:22:36 13° E 00:24:46 10° NE visible
03 Jun 3.5 01:57:59 32° SSW 01:59:56 76° W 02:04:18 10° N visible
03 Jun 6.0 03:37:34 10° WNW 03:38:45 11° WNW 03:39:44 10° NW visible
